Flag for Cote d'Ivoire (Ivory Coast) Weather past 2 weeks in Abidjan, Cote d'Ivoire (Ivory Coast)

Now
86 °F

Passing clouds.


Feels Like: 99 °F
Forecast: N/A
Wind: 10 mph from Southwest

Location: Abidjan Airport

Current Time: Mar 28, 2015 at 2:57:46 PM

Latest Report: Mar 28, 2015 at 2:30 PM


Visibility: N/A

Pressure: 29.86 "Hg

Humidity: 79%

Dew point: 79 °F

Location of AbidjanLocation

Historic Weather in Abidjan — Graph

°F

Abidjan temperature yesterday

Maximum temperature yesterday: 86 °F (at 1:30 PM)
Minimum temperature yesterday: 72 °F (at 2:00 AM)
Average temperature yesterday: 80 °F

Past Weeks' High & Low Weather Summary

 TemperatureHumidityPressure
High91 °F (Mar 23, 1:00 PM)100% (Mar 14, 12:00 AM)29.98 "Hg (Mar 14, 12:00 AM)
Low72 °F (Mar 27, 2:00 AM)55% (Mar 17, 12:00 PM)29.68 "Hg (Mar 14, 4:30 PM)
Average82 °F83%29.82 "Hg
* Reported Mar 13 1:00 PM — Mar 28 1:30 PM, Abidjan, Weather by CustomWeather, © 2015

Note: Actual official high and low records may vary slightly from our data, if they occured in-between our weather recording intervals... More about our weather records

Advertising

Abidjan weather history for previous 24 hours

 ConditionsComfort  
Time TempWeatherWind HumidityBarometerVisibility
1:30 PM
Sat, Mar 28
86 °FScattered clouds.12 mph70%29.89 "HgN/A
1:00 PM86 °FScattered clouds.10 mph70%29.89 "HgN/A
12:30 PM88 °FScattered clouds.10 mph62%29.92 "Hg6 mi
12:00 PM88 °FScattered clouds.9 mph62%29.92 "Hg6 mi
11:30 AM88 °FPassing clouds.7 mph59%29.95 "Hg4 mi
11:00 AM86 °FPassing clouds.7 mph66%29.95 "Hg4 mi
10:30 AM86 °FPassing clouds.6 mph75%29.95 "Hg4 mi
10:00 AM86 °FPassing clouds.3 mph70%29.95 "Hg4 mi
9:30 AM86 °FPassing clouds.2 mph75%29.95 "Hg4 mi
9:00 AM84 °FPassing clouds.2 mph79%29.92 "Hg4 mi
8:30 AM82 °FPassing clouds.1 mph89%29.92 "Hg4 mi
8:00 AM81 °FPassing clouds.1 mph94%29.92 "Hg4 mi
7:30 AM79 °FPassing clouds.1 mph100%29.89 "Hg4 mi
7:00 AM75 °FClear.1 mph100%29.89 "Hg4 mi
6:30 AM75 °FPassing clouds.1 mph100%29.86 "Hg4 mi
6:00 AM75 °FPassing clouds.1 mph100%29.86 "HgN/A
5:30 AM75 °FPassing clouds.1 mph100%29.86 "HgN/A
5:00 AM75 °FPassing clouds.1 mph100%29.86 "HgN/A
4:30 AM75 °FPassing clouds.1 mph100%29.86 "HgN/A
3:30 AM77 °FPassing clouds.1 mph94%29.86 "HgN/A
3:00 AM77 °FPassing clouds.1 mph94%29.86 "HgN/A
2:30 AM79 °FPassing clouds.1 mph94%29.89 "HgN/A
2:00 AM79 °FPassing clouds.2 mph94%29.89 "HgN/A
1:30 AM79 °FPassing clouds.3 mph94%29.92 "HgN/A
1:00 AM79 °FPassing clouds.2 mph94%29.92 "HgN/A
12:30 AM81 °FThunderstorms. Passing clouds.3 mph89%29.95 "HgN/A
12:00 AM81 °FPassing clouds.5 mph89%29.95 "HgN/A
11:30 PM
Fri, Mar 27
81 °FPassing clouds.5 mph89%29.98 "HgN/A
11:00 PM81 °FPassing clouds.5 mph89%29.98 "HgN/A
10:30 PM81 °FPassing clouds.6 mph89%29.98 "HgN/A
10:00 PM81 °FPassing clouds.6 mph89%29.98 "HgN/A
9:30 PM81 °FPassing clouds.6 mph89%29.95 "HgN/A
9:00 PM82 °FPassing clouds.5 mph84%29.95 "HgN/A
8:30 PM82 °FPassing clouds.6 mph84%29.95 "HgN/A
8:00 PM82 °FPassing clouds.8 mph84%29.95 "HgN/A
7:30 PM82 °FPassing clouds.6 mph79%29.92 "HgN/A
7:00 PM82 °FPassing clouds.7 mph79%29.92 "HgN/A
6:30 PM82 °FPassing clouds.7 mph84%29.89 "HgN/A
6:00 PM84 °FScattered clouds.9 mph74%29.89 "HgN/A
5:30 PM84 °FScattered clouds.10 mph74%29.86 "HgN/A
5:00 PM84 °FScattered clouds.10 mph74%29.86 "HgN/A
4:30 PM86 °FScattered clouds.10 mph75%29.86 "HgN/A
4:00 PM86 °FScattered clouds.9 mph75%29.86 "HgN/A
3:30 PM86 °FScattered clouds.8 mph70%29.86 "HgN/A
3:00 PM86 °FBroken clouds.6 mph75%29.89 "HgN/A
2:30 PM84 °FBroken clouds.5 mph74%29.89 "HgN/A
2:00 PM84 °FScattered clouds.5 mph74%29.89 "HgN/A
Weather by CustomWeather, © 2015

See weather overviewHow to use our weather pages